Tracking 25648 objects as of 16-May-2022
HD Live streaming from Space Station
objects crossing your sky now

COSMOS 2251 DEB

Track COSMOS 2251 DEB now!
10-day predictions


NORAD ID: 47048
Int'l Code: 1993-036BXA
Perigee: 661.5 km
Apogee: 918.7 km
Inclination: 74.0 °
Period: 100.5 minutes
Semi major axis: 7161 km
RCS: Unknown
Launch date: June 16, 1993
Source: Commonwealth of Independent States (former USSR) (CIS)
Launch site: PLESETSK MISSILE AND SPACE COMPLEX (PKMTR)

Note: This is SATELLITE DEBRIS
aabbcc
Your satellite tracking list
Your tracking list is empty




NASA's NSSDC Master Catalog

Two Line Element Set (TLE):
1 47048U 93036BXC 22136.00623573  .00002237  00000-0  69739-3 0  9995
2 47048  73.9860 225.8134 0179580 354.2933 180.6926 14.32630922539698
Source of the keplerian elements: AFSPC